GW2473 Weather Reports


time (UTC)temp
F
wind
direction
speed
knots
gust
knots
rain 1hr
in
rain 24hr
in
rain mn
in
humidity
%
barometer
mb
20260504185515 67 326 2.6 14.8 0.00 0.00 0.00 35 1008.8
20260504185019 67 232 6.1 14.8 0.00 0.00 0.00 34 1009.0
20260504184530 67 163 5.2 13.9 0.00 0.00 0.00 34 1009.1
20260504184017 66 331 3.5 14.8 0.00 0.00 0.00 35 1009.0
20260504183516 66 303 7.0 15.6 0.00 0.00 0.00 36 1009.0
20260504183036 66 5 8.7 15.6 0.00 0.00 0.00 35 1008.9
20260504182514 67 360 4.3 14.8 0.00 0.00 0.00 34 1009.1
20260504182013 66 349 2.6 14.8 0.00 0.00 0.00 35 1008.9
20260504181535 66 309 6.1 14.8 0.00 0.00 0.00 35 1009.1
20260504181015 66 281 5.2 13.0 0.00 0.00 0.00 34 1009.2
20260504180517 66 227 2.6 14.8 0.00 0.00 0.00 34 1009.2
20260504180030 65 289 4.3 15.6 0.00 0.00 0.00 35 1009.4
20260504175517 65 306 7.0 15.6 0.00 0.00 0.00 35 1009.5
20260504175017 66 316 7.0 16.5 0.00 0.00 0.00 35 1009.6
20260504174531 65 287 8.7 16.5 0.00 0.00 0.00 35 1009.7
20260504174014 65 343 7.0 16.5 0.00 0.00 0.00 35 1009.6
20260504173514 65 51 2.6 13.0 0.00 0.00 0.00 35 1009.5
20260504173032 64 304 5.2 21.7 0.00 0.00 0.00 36 1009.6
20260504172514 65 12 12.2 21.7 0.00 0.00 0.00 35 1009.6
20260504172019 65 323 5.2 11.3 0.00 0.00 0.00 36 1009.7
20260504171530 64 325 6.1 17.4 0.00 0.00 0.00 34 1009.7
20260504171013 64 285 6.1 17.4 0.00 0.00 0.00 36 1009.8
20260504170515 64 290 7.8 13.9 0.00 0.00 0.00 35 1009.8
20260504151016 59 324 7.8 14.8 0.00 0.00 0.00 38 1011.3
20260504150517 59 286 8.7 17.4 0.00 0.00 0.00 38 1011.4
20260504141015 58 44 4.3 13.0 0.00 0.00 0.00 40 1011.5
20260504140516 57 294 6.1 12.2 0.00 0.00 0.00 40 1011.5
20260504130513 55 243 2.6 11.3 0.00 0.00 0.00 43 1012.1
20260504110516 47 194 0.0 6.1 0.00 0.00 0.00 55 1012.1
20260504100517 46 278 0.9 3.5 0.00 0.00 0.00 54 1012.1
20260504081532 47 177 0.9 6.1 0.00 0.00 0.00 53 1012.2
20260504081015 47 0 0.9 6.1 0.00 0.00 0.00 53 1012.1
20260504080514 47 0 0.9 6.1 0.00 0.00 0.00 53 1012.1
20260504050515 49 352 1.7 10.4 0.00 0.00 0.00 49 1011.9
20260504045515 49 342 2.6 10.4 0.00 0.00 0.00 49 1012.0
20260504045015 49 288 2.6 7.0 0.00 0.00 0.00 49 1011.9
20260504044537 49 132 0.9 9.6 0.00 0.00 0.00 49 1011.9
20260504044017 49 256 2.6 9.6 0.00 0.00 0.00 49 1011.7
20260504043515 50 298 1.7 8.7 0.00 0.00 0.00 49 1011.7
20260504043041 50 15 3.5 7.8 0.00 0.00 0.00 47 1011.7
20260504042516 50 320 2.6 7.8 0.00 0.00 0.00 47 1011.8
20260504042017 50 323 3.5 7.8 0.00 0.00 0.00 47 1011.7
20260504041532 50 342 2.6 7.8 0.00 0.00 0.00 47 1011.7
20260504041015 50 284 3.5 8.7 0.00 0.00 0.00 48 1011.7
20260504040515 50 270 2.6 8.7 0.00 0.00 0.00 48 1011.7
20260504040036 49 314 3.5 8.7 0.00 0.00 0.00 48 1011.6
20260504035516 49 352 2.6 8.7 0.00 0.00 0.00 47 1011.6
20260504035015 49 340 2.6 7.0 0.00 0.00 0.00 48 1011.5
20260504034539 49 134 1.7 7.0 0.00 0.00 0.00 48 1011.6
20260504034017 49 291 3.5 6.1 0.00 0.00 0.00 48 1011.5
20260504033517 49 275 0.9 5.2 0.00 0.00 0.00 49 1011.6
20260504033030 49 290 0.9 6.1 0.00 0.00 0.00 48 1011.5
20260504032513 49 281 0.9 6.1 0.00 0.00 0.00 48 1011.6
20260504032015 49 0 0.9 7.0 0.00 0.00 0.00 48 1011.6
20260504031530 49 323 1.7 7.0 0.00 0.00 0.00 48 1011.7
20260504031015 49 198 0.0 3.5 0.00 0.00 0.00 48 1011.7
20260504030514 48 243 0.9 4.3 0.00 0.00 0.00 48 1011.7
20260504030030 48 0 0.9 4.3 0.00 0.00 0.00 49 1011.6
20260504025515 48 197 0.9 3.5 0.00 0.00 0.00 49 1011.7
20260504025015 48 202 0.9 5.2 0.00 0.00 0.00 49 1011.6
20260504024532 48 209 2.6 5.2 0.00 0.00 0.00 50 1011.6
20260504024014 48 202 1.7 5.2 0.00 0.00 0.00 52 1011.7
20260504023514 47 215 2.6 5.2 0.00 0.00 0.00 53 1011.6
20260504023029 47 215 1.7 5.2 0.00 0.00 0.00 53 1011.6
20260504022514 46 214 1.7 4.3 0.00 0.00 0.00 57 1011.7
20260504022014 46 213 0.9 3.5 0.00 0.00 0.00 56 1011.7
20260504021534 46 218 1.7 7.0 0.00 0.00 0.00 58 1011.7
20260504021013 45 186 1.7 7.0 0.00 0.00 0.00 59 1011.7
20260504020515 45 208 1.7 3.5 0.00 0.00 0.00 64 1011.8
20260504020037 44 190 1.7 3.5 0.00 0.00 0.00 64 1011.7
20260504015513 44 188 1.7 3.5 0.00 0.00 0.00 67 1011.6
20260504015015 44 202 1.7 3.5 0.00 0.00 0.00 66 1011.6
20260504014537 44 196 1.7 4.3 0.00 0.00 0.00 69 1011.5
20260504014014 44 192 1.7 4.3 0.00 0.00 0.00 68 1011.5
20260504013517 44 200 2.6 3.5 0.00 0.00 0.00 67 1011.4
20260504013031 44 190 1.7 3.5 0.00 0.00 0.00 67 1011.3
20260504012516 44 196 1.7 3.5 0.00 0.00 0.00 67 1011.3
20260504012015 44 199 2.6 3.5 0.00 0.00 0.00 67 1011.3
20260504011532 44 194 1.7 3.5 0.00 0.00 0.00 67 1011.4
20260504011014 45 196 1.7 3.5 0.00 0.00 0.00 66 1011.3
20260504010516 45 205 1.7 4.3 0.00 0.00 0.00 64 1011.3
20260504010029 45 204 2.6 4.3 0.00 0.00 0.00 63 1011.4
20260504005514 45 187 1.7 3.5 0.00 0.00 0.00 64 1011.3
20260504005012 46 205 2.6 3.5 0.00 0.00 0.00 64 1011.3
20260504004534 46 192 0.9 3.5 0.00 0.00 0.00 62 1011.3
20260504004014 47 186 1.7 3.5 0.00 0.00 0.00 62 1011.2
20260504003516 47 187 1.7 3.5 0.00 0.00 0.00 62 1011.2
20260504003030 48 190 1.7 3.5 0.00 0.00 0.00 61 1011.2
20260504002517 48 182 1.7 3.5 0.00 0.00 0.00 60 1011.0
20260504002017 49 205 1.7 3.5 0.00 0.00 0.00 56 1010.9
20260504001535 50 207 1.7 3.5 0.00 0.00 0.00 53 1010.9
20260504001015 52 236 0.9 4.3 0.00 0.00 0.00 52 1010.8
20260504000514 52 0 0.9 8.7 0.00 0.00 0.00 46 1010.9
20260504000038 53 302 2.6 8.7 0.00 0.00 0.00 47 1010.8
20260503235519 53 333 2.6 7.0 0.00 0.00 0.00 48 1010.8
20260503235016 53 325 2.6 7.0 0.00 0.00 0.00 48 1010.8
20260503234530 54 331 2.6 8.7 0.00 0.00 0.00 47 1010.7
20260503234016 54 337 4.3 10.4 0.00 0.00 0.00 49 1010.6
20260503233516 54 360 6.1 10.4 0.00 0.00 0.00 50 1010.7
20260503233034 54 350 7.0 9.6 0.00 0.00 0.00 47 1010.6
20260503232515 54 342 5.2 9.6 0.00 0.00 0.00 47 1010.6
20260503232015 54 348 6.1 9.6 0.00 0.00 0.00 45 1010.6
20260503231533 54 349 6.1 12.2 0.00 0.00 0.00 45 1010.7
20260503231017 54 17 7.0 16.5 0.00 0.00 0.00 49 1010.7
20260503230519 54 13 8.7 16.5 0.00 0.00 0.00 48 1010.8
20260503230030 54 11 9.6 16.5 0.00 0.00 0.00 44 1010.7
20260503225514 54 11 9.6 14.8 0.00 0.00 0.00 44 1010.6
20260503225020 54 24 7.8 15.6 0.00 0.00 0.00 48 1010.6
20260503224533 54 360 10.4 15.6 0.00 0.00 0.00 40 1010.6
20260503224016 54 19 10.4 15.6 0.00 0.00 0.00 48 1010.6
20260503223516 54 30 9.6 14.8 0.00 0.00 0.00 46 1010.6
20260503223030 54 28 8.7 17.4 0.00 0.00 0.00 47 1010.6
20260503222514 54 11 10.4 17.4 0.00 0.00 0.00 45 1010.6
20260503222013 54 31 12.2 17.4 0.00 0.00 0.00 43 1010.5
20260503221532 54 352 10.4 19.1 0.00 0.00 0.00 40 1010.6
20260503221014 54 9 11.3 19.1 0.00 0.00 0.00 41 1010.7
20260503220518 54 17 12.2 19.1 0.00 0.00 0.00 42 1010.7
20260503220035 54 360 10.4 19.1 0.00 0.00 0.00 47 1010.8
20260503215517 54 5 13.9 19.1 0.00 0.00 0.00 45 1010.8
20260503215016 54 352 12.2 18.2 0.00 0.00 0.00 41 1010.7
20260503214540 54 352 13.0 19.1 0.00 0.00 0.00 46 1010.7
20260503214017 54 5 11.3 20.0 0.00 0.00 0.00 41 1010.5
20260503213517 54 346 14.8 22.6 0.00 0.00 0.00 41 1010.5
20260503213032 54 347 10.4 22.6 0.00 0.00 0.00 44 1010.3
20260503212515 54 348 13.0 22.6 0.00 0.00 0.00 40 1010.2
20260503212017 54 13 12.2 18.2 0.00 0.00 0.00 41 1010.1
20260503211536 54 34 12.2 17.4 0.00 0.00 0.00 39 1010.0
20260503211014 53 360 9.6 13.9 0.00 0.00 0.00 43 1010.1
20260503210514 53 5 9.6 15.6 0.00 0.00 0.00 41 1010.1
20260503210033 53 13 9.6 15.6 0.00 0.00 0.00 42 1010.1
20260503205517 53 50 11.3 15.6 0.00 0.00 0.00 37 1010.1
20260503205016 53 338 9.6 17.4 0.00 0.00 0.00 41 1010.0
20260503204533 53 5 11.3 17.4 0.00 0.00 0.00 39 1010.0
20260503204014 53 321 11.3 17.4 0.00 0.00 0.00 35 1010.1
20260503203514 53 333 11.3 16.5 0.00 0.00 0.00 37 1010.0
20260503203043 53 352 9.6 16.5 0.00 0.00 0.00 39 1010.1
20260503202516 53 331 10.4 15.6 0.00 0.00 0.00 40 1010.1
20260503202017 52 327 9.6 13.9 0.00 0.00 0.00 38 1010.1
20260503201535 52 5 8.7 18.2 0.00 0.00 0.00 42 1010.1
20260503201018 52 5 10.4 23.5 0.00 0.00 0.00 38 1010.1
20260503200514 52 31 13.0 23.5 0.00 0.00 0.00 41 1010.3
20260503200046 52 39 13.9 23.5 0.00 0.00 0.00 39 1010.4
20260503195515 52 20 12.2 19.1 0.00 0.00 0.00 44 1010.3
20260503195016 52 336 10.4 19.1 0.00 0.00 0.00 42 1010.4
20260503194530 51 321 9.6 18.2 0.00 0.00 0.00 38 1010.6
20260503194017 51 346 11.3 18.2 0.00 0.00 0.00 39 1010.8
20260503193515 51 340 13.0 17.4 0.00 0.00 0.00 43 1010.7
20260503193034 51 352 12.2 20.9 0.00 0.00 0.00 44 1010.9
20260503192514 51 25 14.8 20.9 0.00 0.00 0.00 41 1011.0
20260503192015 51 348 11.3 20.0 0.00 0.00 0.00 46 1010.9
20260503191537 51 350 13.0 22.6 0.00 0.00 0.00 42 1011.0
20260503191018 50 15 10.4 22.6 0.00 0.00 0.00 44 1011.1
20260503190516 50 346 14.8 22.6 0.00 0.00 0.00 42 1011.2
20260503190030 50 360 14.8 21.7 0.00 0.00 0.00 44 1011.1